STARLINK-30921, 58383

Orbit data source: Space-Track

STARLINK-30921, 58383 is a payload satellite owned by SpaceX/Seattle (US) in LEO that was launched on Mon, 20 Nov 2023 UTC via an FALCON 9 launch vehicle from the Air Force Western Test Range (AFWTR). Payload-class satellites include a variety of spacecraft equipped with specific instruments for various scientific and technological missions. These include communications satellites like Starlink; space stations such as the ISS; scientific satellites like the Hubble; Earth observation satellites from companies like Planet Labs, Umbra, and HawkEye 360; GPS; miniature CubeSats for education and research; and military/defense satellites.

Loading next visibility...
Identifier
58383, 2023-178K
Orbit
LEO
Country
Flag of USUS
Related business
Manufacturer
SpaceX/Seattle
Mission
Operational Commercial Communications
Bus & Motor
STARLINK V2M, Unknown motor
Mass
730 kg wet, ~700 kg dry
Launch date (UTC)
2023-11-20 (3 years ago)
Launch vehicle
FALCON 9
Launch site
Air Force Western Test Range (AFWTR)
Object type
Payload
Rocket body
Debris
Shape & HBR
Box + 2 Pan, 17.7 m
Radar Cross Section
33.884 m², Large (>1 m²)

Expand to show TLE details & history
Last TLE update: 2 days ago

TLE from 2 days ago
0 STARLINK-30921
1 58383U 23178K   26171.43240616  .00001166  00000-0  45670-4 0  9991
2 58383  53.1613 242.3004 0001653 127.4350 232.6803 15.34393948145621
Epoch: 2026-06-20T10:22Z
TLE epoch observation values (Epoch: 2026-06-20T10:22:39.892Z)
Latitude
-0.00002°
Longitude
177.98705°
Altitude
464.308 km
Speed
7.635 km/s
True Right ascension
16h 09m 12s
True Declination
0° 00' 00"
Sunlit
Object was in full shadow at epoch
Visualization orbit readout
Latitude
Unknown
Longitude
Unknown
Altitude
Unknown
Speed
Unknown
Apparent Right ascension
Unknown
Apparent Declination
Unknown
Sunlit
N/A
Visualization observer readout
Local Sidereal Time
21:34:24
Azimuth
Unknown
Elevation
Unknown
Doppler factor
Unknown
Orbital elements
Apogee altitude
464.109 km
Perigee altitude
461.847 km
Semi-major axis
6,841.115 km
Eccentricity
0.00017
Inclination
53.1613°
RAAN
242.3004°
Arg. of periapsis
127.435°
True anomaly
232.66524°
Mean anomaly
232.6803°
Eccentric anomaly
232.67277°
Mean motion
3.83577 °/min
Orbital period
93.85 mins
BSTAR
0.00004567
Loading maneuver chart data...
Computing Atmospheric mass density...
Loading historical data...
Loading historical data...
Loading historical data...
Loading historical data...
Loading historical data...
Loading historical data...
Loading historical data...

Documentation

Showing up to 5 results
|